Regional Weather Roundup
Issued by NWS Kansas City/Pleasant Hill, MO

Home | Current Version | Previous Version | Text Only | Print | Product List | Glossary On
Versions: 1 2 3 4 5 6 7 8 9 10 11 12 13 14 15 16 17 18 19 20 21 22 23 24 25 26 27 28 29 30 31 32 33 34 35 36 37 38 39 40 41 42 43 44 45 46 47
000
ASUS43 KEAX 310410
RWREAX

WEATHER ROUNDUP FOR EASTERN KANSAS AND NORTHWEST MISSOURI
NATIONAL WEATHER SERVICE KANSAS CITY/PLEASANT HILL MO
1100 PM CDT SUN AUG 30 2015

KSZ040-057-103>105-MOZ028-029-037-043-310500-
...KANSAS CITY METROPOLITAN AREA...

CITY           SKY/WX    TMP DP  RH WIND       PRES   REMARKS
K.C. INTL      PTCLDY    74  69  85 SE7       29.98S
K.C. DOWNTOWN  PTCLDY    79  71  76 SE5       29.97R
LEES SUMMIT    MOCLDY    76  70  82 SE3       29.99S
OLATHE - IXD   PTCLDY    74  69  85 E3        29.99S
OLATHE - OJC   MOCLDY    75  70  84 CALM      29.98S
LAWRENCE       MOCLDY    68  66  93 CALM      29.97S FOG

$$

MOZ001>008-011>017-020>025-030>033-038>040-044>046-053-054-310500-
...NORTHERN AND CENTRAL MISSOURI...

CITY           SKY/WX    TMP DP  RH WIND       PRES   REMARKS
ST. JOSEPH     CLOUDY    71  69  93 CALM      29.97S
MOSBY          CLEAR     72  72 100 CALM      29.98R
WHITEMAN AFB   PTCLDY    75  73  94 SE5       29.97F
CLINTON        CLEAR     75  73  94 CALM      29.98F
SEDALIA        MOCLDY    77  71  82 SE5       30.00F
WARSAW         NOT AVBL
CHILLICOTHE      N/A     76  71  85 CALM      30.00R
KIRKSVILLE     CLEAR     70  66  87 SE5       30.01F

$$

MOZ041-047>049-056>058-063>065-088>090-097-310500-
...EASTERN AND SOUTHERN MISSOURI...

CITY           SKY/WX    TMP DP  RH WIND       PRES   REMARKS
ST. LOUIS INTL MOCLDY    81  69  67 S7        30.01F
SPIRIT OF STL  PTCLDY    73  72  96 CALM      29.99F
COLUMBIA       CLEAR     75  71  87 SE5       30.00F
JEFFERSON CITY PTCLDY    75  72  90 CALM      29.98F
ROLLA          CLEAR     74  70  87 S7        30.01F
OSAGE BEACH    MOCLDY    75  70  83 SE3       30.00F
SPRINGFIELD    CLEAR     75  70  84 SE7       30.00F
BRANSON        MOCLDY    73  70  88 CALM      30.02S
JOPLIN         CLEAR     76  70  82 SE6       29.97F
WEST PLAINS    CLEAR     73  67  81 CALM      30.04F

$$

IAZ060-094-KSZ022-034>040-054-083-096-NEZ052-066-093-310500-
...KANSAS...SOUTHEAST NEBRASKA AND IOWA...

CITY           SKY/WX    TMP DP  RH WIND       PRES   REMARKS
TOPEKA         CLEAR     70  68  93 CALM      29.97S
MANHATTAN      CLEAR     69  67  93 CALM      29.97S
EMPORIA        PTCLDY    69  67  93 S3        29.98S
CHANUTE        PTCLDY    72  70  93 CALM      29.97S
WICHITA        CLEAR     74  68  81 SE9       29.96S
OMAHA          PTCLDY    68  66  93 SE6       29.97S
LINCOLN        CLEAR     67  65  93 S5        29.98S
FALLS CITY     CLEAR     70  68  93 CALM      29.96F
LAMONI         PTCLDY    73  68  84 SE3       30.00S
DES MOINES     PTCLDY    70  66  87 SE7       29.99R

$$




USA.gov is the U.S. government's official web portal to all federal, state and local government web resources and services.